Regional Weather Roundup
Issued by NWS

Home | Current Version | Previous Version | Text Only | Print | Product List | Glossary Off
Versions: 1 2 3 4 5 6 7 8 9 10 11 12 13 14 15 16 17 18 19 20 21 22 23 24 25 26 27 28 29 30 31 32 33 34 35 36 37 38 39 40 41 42 43 44 45 46 47 48 49 50

000
ASUS45 KBOU 251007
RWRCO

WEATHER ROUNDUP FOR COLORADO
NATIONAL WEATHER SERVICE DENVER/BOULDER CO
400 AM MDT SAT APR 25 2015

NOTE: "FAIR" INDICATES FEW OR NO CLOUDS BELOW 12000 FEET WITH NO
SIGNIFICANT WEATHER AND/OR OBSTRUCTIONS TO VISIBILITY.

COZ001>005-013-030-031-251100-
...NORTHWEST COLORADO...

CITY           SKY/WX    TMP DP  RH WIND       PRES   REMARKS
CRAIG          CLOUDY    42  32  67 N3        29.77S
HAYDEN         CLOUDY    41  28  60 E10       29.79S
MEEKER         LGT RAIN  47  33  58 SW13      29.79R
MOUNT WERNER   NOT AVBL
STEAMBOAT SPGS CLOUDY    36  32  87 CALM      29.80S
WALDEN         PTCLDY    30  25  80 SE8       29.82S WCI  23
$$

COZ006>008-011-251100-
...WEST CENTRAL VALLEYS...

CITY           SKY/WX    TMP DP  RH WIND       PRES   REMARKS
GRAND JUNCTION CLOUDY    50  32  50 NE9       29.77R
MONTROSE       CLOUDY    47  32  56 CALM      29.86S
EAGLE          PTCLDY    30  28  93 CALM      29.87S
RIFLE          CLOUDY    40  34  79 S5        29.81R
DELTA          MOCLDY    44  33  65 MISG      29.84S
NUCLA          CLOUDY    50  34  53 S10       29.89R
$$

COZ017>023-064>068-251100-
...SOUTHWEST COLORADO...

CITY           SKY/WX    TMP DP  RH WIND       PRES   REMARKS
DURANGO        CLOUDY    39  36  89 CALM      29.95S
CORTEZ         CLOUDY    47  38  71 S8        29.91S
PAGOSA SPRINGS CLOUDY    37  35  94 NE3       29.97S
TELLURIDE      CLOUDY    34  29  81 CALM      29.97S
WOLF CREEK PAS NOT AVBL
$$

COZ009-010-012-014-032>034-037-058>063-251100-
...CENTRAL COLORADO...

CITY           SKY/WX    TMP DP  RH WIND       PRES   REMARKS
ASPEN          CLOUDY    33  25  72 SW3       29.86R
BUENA VISTA    PTCLDY    33  24  70 NW7       29.87S WCI  26
COPPER MTN     PTCLDY    28  18  64 SW12G17   29.97S WCI  18
BERTHOUD PASS  MOCLDY    19  10  68 NW16G30   29.96S WCI   5
COTTONWOOD PAS PTCLDY    37  21  52 W13G23    29.91S
GUNNISON       CLEAR     28  21  74 CALM      29.95S
KREMMLING      PTCLDY    30  25  80 E5        29.86S WCI  25
LEADVILLE      PTCLDY    24  17  74 E7        29.91R WCI  16
MONARCH PASS   CLOUDY    23  19  86 MISG      30.08S
SALIDA         PTCLDY    43  24  48 SW14      29.94R
SUNLIGHT       FLURRIES  32  27  80 CALM      29.95F
WILKERSON PASS CLOUDY    27  18  69 W9G18     29.95S WCI  17
$$

COZ069>075-251100-
...SAN LUIS VALLEY/SANGRE DE CRISTO MOUNTAINS...

CITY           SKY/WX    TMP DP  RH WIND       PRES   REMARKS
ALAMOSA        CLEAR     25  21  85 E7        29.93R WCI  17
LA VETA PASS   PTCLDY    27  23  86 S10G17    29.95S WCI  17
SAGUACHE       CLEAR     25  21  86 CALM      29.93S
$$

COZ035-036-038>040-251100-
...NORTHERN COLORADO FRONT RANGE...

CITY           SKY/WX    TMP DP  RH WIND       PRES   REMARKS
DENVER INTL AP CLEAR     44  27  51 S10       29.71R
DMNS CITY PARK   N/A     43  28  54 S5        29.71S
AURORA         PTCLDY    41  27  57 S7        29.73R
FRONT RANGE AP NOT AVBL
ERIE MUNI ARPT CLEAR     34  32  91 CALM      29.70S
BOULDER MUN AP CLEAR     43  30  61 CALM      29.71R
CENTENNIAL     PTCLDY    37  26  64 S6        29.73R
BROOMFIELD     CLEAR     45  28  53 W8        29.72R
FORT COLLINS   CLEAR     39  30  70 S3        29.72R
LONGMONT       CLEAR     38  32  78 W8        29.73R
$$

COZ041-046-047-076>085-087-088-251100-
...PIKES PEAK/PALMER DIVIDE AND SOUTHERN FOOTHILLS...

CITY           SKY/WX    TMP DP  RH WIND       PRES   REMARKS
COLO. SPRINGS  PTCLDY    46  22  38 NW3       29.76S
A. F. ACADEMY  CLEAR     46  20  34 VRB6G21   29.77R
ELLICOTT       CLEAR    N/A N/A N/A N3        29.75S
FALCON         CLEAR     42  21  44 NW12      29.79S
FORT CARSON    CLEAR     35  28  76 N7        29.74S WCI  29
LIMON          CLEAR     37  32  82 N8        29.73R
MONUMENT HILL  CLEAR     37  23  56 SW10      29.78S
TRINIDAD       CLEAR     43  23  45 W20       29.79R
$$

COZ042>045-048>051-090-091-251100-
...NORTHEAST COLORADO...

CITY           SKY/WX    TMP DP  RH WIND       PRES   REMARKS
GREELEY ARPT   CLEAR     41  28  60 NW5       29.71S
AKRON          MOCLDY    42  36  79 W9        29.68R
BURLINGTON     MOCLDY    46  39  76 NW9       29.66S
WRAY           MOCLDY    45  40  85 W8        29.64S
STERLING       PTCLDY    45  37  76 NW7       29.66R
HOLYOKE        MOCLDY    46  41  81 NW10      29.63S
FORT MORGAN    PTCLDY    45  33  63 W6        29.69R
$$

COZ086-089-092>099-251100-
...SOUTHEAST COLORADO...

CITY           SKY/WX    TMP DP  RH WIND       PRES   REMARKS
PUEBLO         CLEAR     39  32  76 SE3       29.72S
LA JUNTA       CLEAR     44  33  65 W14       29.70R
LAMAR          CLEAR     44  39  82 W8        29.67R
SPRINGFIELD      N/A     46  31  55 W16       29.70S
$$


USA.gov is the U.S. government's official web portal to all federal, state and local government web resources and services.